Terug naar catalogus

STARLINK-34019

ActiefCommunicatieVLEO
NORAD 64032·PAYLOAD·🇺🇸 United States

Gelanceerd May 16, 2025 vanaf Vandenberg Space Force Base

Loading…

Volgende Passages (komende 24 uur)

TLE

VersSource: CelesTrak SupGP

Epoch: Sep 15, 2026, 03:41 UTC

1 64032C 25102L   26258.15395833  .00095401  00000+0  33182-2 0  2580
2 64032  70.0007 355.2013 0003165 267.2295 350.8643 15.29536264    11

Volg STARLINK-34019 in realtime met AllMySat

Download on the App Store